[[{"header":{"parameterUnit":"m.s-1","parameterCategory":1,"la1":30.2991,"la2":30.254,"lo1":-89.0895,"lo2":-89.0444,"dy":0.0017,"dx":0.0017,"nx":28,"ny":28,"refTime":"2024-03-19T21:00:00:Z","depth":0,"parameterNumber":2,"parameterNumberName":"U-component_of_WINDS"},"data":[0,0,0,0,0,0,0,0,0,0,0,0,0,0,0,0,0,0,0,0,0,0,0,0,0,0,0,0,0,0,0,0,0,0,0,0,0,0,0,0,0,0,0,0,0,0,0,0,0,0,0,0,0,0,0,0,0,0,2.1355,2.1356,0,2.1441,2.1442,2.1443,2.1441,2.144,2.1438,2.1437,2.1528,2.1531,2.1535,0,0,0,0,0,0,0,0,0,0,0,0,0,2.1188,2.1191,2.1355,2.1356,2.1357,2.1441,2.1442,2.1444,2.1441,2.144,2.1438,2.1437,2.1527,2.1531,2.1535,0,0,0,0,0,0,0,0,0,0,0,0,0,2.1266,2.1192,2.1355,2.1366,2.1368,2.1441,2.1442,2.1444,2.1441,2.144,2.1438,2.1436,2.1525,2.153,2.1536,2.1604,0,0,2.1552,2.1554,0,0,0,0,0,0,0,0,2.1262,2.1272,2.1363,2.1365,2.1367,2.1428,2.1417,2.1498,2.1442,2.1413,2.1437,2.1435,2.1496,2.1504,2.1524,2.1608,2.1612,2.1552,2.1555,2.1558,2.1559,0,0,0,0,0,0,0,2.1257,2.1269,2.1389,2.1364,2.1367,2.1367,2.1376,2.1432,2.1464,2.1416,2.1416,2.1426,2.1497,2.1519,2.1526,2.1614,2.1552,2.1557,2.156,2.1562,2.1757,2.1758,0,0,0,0,0,0,2.1249,2.1264,2.1386,2.1392,2.1309,2.1371,2.1381,2.1411,2.1463,2.147,2.1427,2.1425,2.1511,2.152,2.1529,2.1611,2.1558,2.1563,2.1566,2.1755,2.1757,2.1759,0,0,0,0,0,0,2.1245,2.1259,2.1383,2.1328,2.1344,2.1376,2.1409,2.1413,2.1435,2.1472,2.1478,2.1444,2.151,2.1522,2.1585,2.1614,2.1565,2.157,2.1752,2.1755,2.1758,2.1777,0,0,0,0,0,0,2.124,2.1258,2.1284,2.1329,2.1347,2.1437,2.1411,2.1416,2.1444,2.1442,2.1489,2.1495,2.1509,2.1577,2.159,2.1621,2.1574,2.175,2.1754,2.1757,2.1774,2.178,2.1785,0,0,0,0,0,2.1234,2.1287,2.1286,2.13,2.138,2.1438,2.1449,2.1464,2.1446,2.1473,2.1496,2.1493,2.1609,2.1584,2.1598,2.1631,2.1748,2.1752,2.1757,2.1771,2.1779,2.1785,0,0,0,0,0,0,2.1246,2.1293,2.1292,2.1361,2.1395,2.1438,2.1472,2.1472,2.1513,2.151,2.1527,2.1538,2.16,2.1622,2.1593,2.1699,2.1676,2.1684,2.1682,2.169,2.1696,2.1688,2.1578,0,0,0,0,0,2.1257,2.13,2.1339,2.1395,2.1413,2.1439,2.1465,2.1474,2.1511,2.1526,2.1554,2.1591,2.1635,2.1664,2.1707,2.1777,2.1787,2.1807,2.1813,2.1818,2.1824,2.186,2.1869,2.1774,2.1774,2.1774,0,0,2.1279,2.131,2.1336,2.1399,2.1426,2.1471,2.1452,2.15,2.1533,2.1533,2.1594,2.1616,2.1658,2.1724,2.1755,2.1744,2.1852,2.1823,2.1827,2.183,2.1866,2.1875,2.1883,2.1777,2.1776,2.1776,0,0,2.1342,2.137,2.1419,2.1447,2.149,2.1507,2.1519,2.1561,2.1575,2.1636,2.1637,2.1677,2.1754,2.1783,2.1808,2.1881,2.1879,2.1895,2.1925,2.1961,2.1968,2.1975,2.1999,2.2008,2.1901,2.1901,2.1901,0,2.1364,2.143,2.1445,2.1493,2.1519,2.1521,2.1571,2.1598,2.1653,2.1671,2.1659,2.1754,2.1783,2.1855,2.1872,2.1893,2.1907,2.1889,2.1966,2.1973,2.1979,2.2003,2.2012,2.1902,2.1902,2.1902,2.1902,0,2.1455,2.1501,2.1536,2.1586,2.1618,2.1667,2.1688,2.1718,2.1724,2.1742,2.1804,2.1838,2.1887,2.1906,2.1912,2.1979,2.1971,2.1962,2.1939,2.199,2.2012,2.2021,2.1904,2.1904,2.1903,2.1903,0,0,2.1526,2.1585,2.1597,2.1619,2.1666,2.1702,2.1751,2.1798,2.1822,2.186,2.1901,2.1965,2.1957,2.1985,2.1995,2.2027,2.208,2.2014,2.2016,2.2024,2.2153,2.2158,2.2168,2.208,2.2082,2.2083,2.2149,0,2.1592,2.1677,2.1692,2.1767,2.1808,2.1811,2.1853,2.1886,2.1905,2.1943,2.1964,2.2008,2.1996,2.2012,2.2044,2.2067,2.2106,2.2063,2.2117,2.2119,2.2104,2.218,2.2186,2.2246,2.2158,2.216,2.2161,0,2.1681,2.1719,2.1797,2.1837,2.1855,2.1892,2.1936,2.1973,2.2011,2.2022,2.2053,2.2059,2.2109,2.2085,2.2154,2.2124,2.2148,2.2162,2.2165,2.2169,2.2141,2.2185,2.2266,2.2274,2.2175,2.2174,2.2173,0,2.1722,2.1794,2.185,2.1869,2.1918,2.1943,2.1965,2.2001,2.2028,2.2066,2.2084,2.2129,2.2152,2.2187,2.2204,2.2186,2.2272,2.225,2.2282,2.2281,2.2298,2.2297,2.2382,2.2316,2.2316,2.2316,2.2316,0,2.1793,2.1841,2.1869,2.1903,2.1956,2.1973,2.2025,2.2046,2.2077,2.2115,2.2121,2.2157,2.2179,2.2218,2.2232,2.2286,2.2298,2.2308,2.231,2.2306,2.2304,2.232,2.2316,2.2319,2.2318,2.2317,2.2317,0,2.1848,2.187,2.193,2.197,2.1981,2.2019,2.2053,2.2086,2.2105,2.2153,2.2165,2.2194,2.224,2.2261,2.2319,2.2328,2.2389,2.239,2.2376,2.2376,2.2406,2.2402,2.2504,2.2517,2.2444,2.2445,2.2445,0,2.1891,2.1928,2.1971,2.1997,2.2018,2.206,2.2087,2.2105,2.2133,2.2178,2.2205,2.2251,2.2289,2.2362,2.2388,2.2432,2.2433,2.2466,2.244,2.2433,2.2431,2.2428,2.2431,2.247,2.2471,2.2471,2.2472,0,2.1965,2.1973,2.2012,2.2054,2.2086,2.2121,2.2154,2.2175,2.2198,2.223,2.2276,2.2305,2.2363,2.2408,2.2453,2.2475,2.2477,2.248,2.2489,2.2484,2.2473,2.2477,2.2386,2.2477,2.2476,2.2476,2.2476,2.2476,2.2014,2.2045,2.2081,2.2123,2.215,2.2182,2.2214,2.2236,2.2275,2.2322,2.2331,2.238,2.2416,2.2477,2.25,2.2539,2.2531,2.2545,2.2549,2.2551,2.2552,2.2468,2.2548,2.2547,2.2547,2.2547,2.2547,0,2.2085,2.2108,2.2147,2.2194,2.2227,2.2226,2.2263,2.2291,2.2334,2.2367,2.2403,2.2456,2.2499,2.2529,2.2573,2.2598,2.26,2.2609,2.2606,2.2611,2.2557,2.2544,2.2607,2.2607,2.2607,2.2607,2.2607,2.2607,2.2127,2.2179,2.2192,2.2258,2.2281,2.2328,2.2349,2.2378,2.2404,2.2462,2.2498,2.2517,2.2548,2.2595,2.2634,2.2642,2.2657,2.2666,2.2673,2.2622,2.2615,2.2609,2.2597,2.267,2.267,2.2724,2.2724,2.2725]},{"header":{"parameterUnit":"m.s-1","parameterCategory":1,"la1":30.2991,"la2":30.254,"lo1":-89.0895,"lo2":-89.0444,"dy":0.0017,"dx":0.0017,"nx":28,"ny":28,"refTime":"2024-03-19T21:00:00:Z","depth":0,"parameterNumber":3,"parameterNumberName":"V-component_of_WINDS"},"data":[0,0,0,0,0,0,0,0,0,0,0,0,0,0,0,0,0,0,0,0,0,0,0,0,0,0,0,0,0,0,0,0,0,0,0,0,0,0,0,0,0,0,0,0,0,0,0,0,0,0,0,0,0,0,0,0,0,0,1.5006,1.5006,0,1.497,1.4969,1.4969,1.4955,1.4956,1.4956,1.4956,1.4916,1.4915,1.4913,0,0,0,0,0,0,0,0,0,0,0,0,0,1.5061,1.506,1.5006,1.5006,1.5005,1.497,1.4969,1.4969,1.4955,1.4956,1.4956,1.4956,1.4916,1.4915,1.4913,0,0,0,0,0,0,0,0,0,0,0,0,0,1.5032,1.5059,1.5006,1.4994,1.4993,1.497,1.4969,1.4968,1.4955,1.4956,1.4956,1.4956,1.4917,1.4915,1.4913,1.4898,0,0,1.4908,1.4907,0,0,0,0,0,0,0,0,1.5033,1.503,1.4997,1.4995,1.4994,1.4967,1.4974,1.4945,1.4955,1.497,1.4956,1.4956,1.4933,1.4929,1.4922,1.4896,1.4894,1.4907,1.4906,1.4906,1.4905,0,0,0,0,0,0,0,1.5035,1.5031,1.4992,1.4996,1.4994,1.499,1.4986,1.4968,1.495,1.4968,1.4967,1.4963,1.4932,1.4924,1.4921,1.4894,1.4908,1.4906,1.4905,1.4904,1.485,1.485,0,0,0,0,0,0,1.504,1.5033,1.4993,1.499,1.5015,1.4988,1.4984,1.4976,1.4951,1.4947,1.4963,1.4963,1.4927,1.4923,1.492,1.4898,1.4906,1.4904,1.4903,1.485,1.485,1.485,0,0,0,0,0,0,1.5041,1.5036,1.4994,1.5011,1.5006,1.4987,1.4978,1.4975,1.4967,1.4947,1.4943,1.4959,1.4927,1.4922,1.4903,1.4897,1.4903,1.4901,1.4851,1.485,1.485,1.4857,0,0,0,0,0,0,1.5043,1.5037,1.5032,1.5011,1.5005,1.498,1.4977,1.4974,1.4964,1.4963,1.4941,1.4938,1.4927,1.4906,1.4901,1.4894,1.49,1.4851,1.4851,1.485,1.4857,1.4856,1.4856,0,0,0,0,0,1.5045,1.5036,1.5032,1.5027,1.4999,1.4979,1.4975,1.4963,1.4964,1.4958,1.4944,1.4939,1.4898,1.4904,1.4899,1.4891,1.4852,1.4851,1.485,1.4857,1.4856,1.4856,0,0,0,0,0,0,1.5056,1.5033,1.5029,1.5013,1.4998,1.4977,1.497,1.4964,1.4948,1.4948,1.4932,1.4928,1.4909,1.4898,1.4905,1.4873,1.4874,1.4872,1.4881,1.4881,1.488,1.4883,1.4899,0,0,0,0,0,1.5057,1.5044,1.5024,1.5012,1.5005,1.4988,1.498,1.4971,1.4955,1.4949,1.4934,1.4918,1.4901,1.489,1.4874,1.4855,1.4849,1.4847,1.4847,1.4846,1.4845,1.4831,1.4829,1.4847,1.4847,1.4847,0,0,1.5058,1.5044,1.5037,1.5014,1.5001,1.4987,1.4983,1.4969,1.4957,1.4946,1.4927,1.4915,1.4896,1.4876,1.4867,1.4866,1.4838,1.4845,1.4845,1.4844,1.483,1.4828,1.4827,1.4846,1.4846,1.4847,0,0,1.5052,1.5041,1.5029,1.5016,1.4998,1.4986,1.4983,1.4963,1.4955,1.4935,1.4926,1.4911,1.4883,1.4869,1.4858,1.4844,1.4838,1.484,1.4837,1.4824,1.4822,1.4821,1.4814,1.4812,1.4838,1.4838,1.4838,0,1.5056,1.5035,1.5023,1.5008,1.4998,1.4987,1.4973,1.4961,1.4938,1.493,1.493,1.4893,1.4879,1.4855,1.4851,1.4843,1.4838,1.4842,1.4824,1.4822,1.4821,1.4814,1.4812,1.4838,1.4838,1.4838,1.4838,0,1.504,1.5025,1.5017,1.4995,1.4983,1.4969,1.4953,1.4942,1.4934,1.4922,1.4901,1.4884,1.4862,1.4856,1.4849,1.4829,1.483,1.4827,1.4827,1.482,1.4813,1.481,1.4839,1.4839,1.4838,1.4838,0,0,1.5042,1.5011,1.5008,1.4997,1.4975,1.4962,1.4946,1.4926,1.4916,1.49,1.4884,1.486,1.4857,1.4844,1.4834,1.4823,1.481,1.4821,1.4821,1.4818,1.4785,1.4786,1.4784,1.4806,1.4805,1.4805,1.4786,0,1.5032,1.5005,1.4992,1.4969,1.4954,1.4942,1.4928,1.4912,1.4899,1.4883,1.487,1.4852,1.485,1.4842,1.483,1.4815,1.4803,1.4816,1.4789,1.4789,1.4794,1.4781,1.4783,1.4766,1.4784,1.4783,1.4783,0,1.5018,1.5002,1.4977,1.4954,1.4947,1.4935,1.4914,1.49,1.4879,1.4871,1.4856,1.4846,1.4827,1.4828,1.48,1.4809,1.4797,1.4787,1.4786,1.4782,1.4785,1.4775,1.4761,1.4757,1.4779,1.4779,1.478,0,1.502,1.4991,1.4973,1.4964,1.4937,1.4928,1.4916,1.4896,1.4884,1.4865,1.4856,1.4835,1.4823,1.4805,1.4789,1.4792,1.4761,1.4762,1.4752,1.4752,1.4745,1.4746,1.4727,1.474,1.474,1.474,1.474,0,1.501,1.4996,1.4973,1.4961,1.4943,1.4928,1.491,1.4897,1.4879,1.4863,1.4851,1.4836,1.4816,1.4798,1.4785,1.4761,1.4757,1.4748,1.4744,1.4748,1.4749,1.474,1.474,1.4739,1.474,1.474,1.474,0,1.501,1.4994,1.4972,1.4948,1.4941,1.4929,1.4907,1.4894,1.4881,1.486,1.4855,1.4833,1.481,1.4793,1.4763,1.4754,1.4729,1.4726,1.4736,1.4734,1.4724,1.4724,1.4698,1.4692,1.471,1.471,1.471,0,1.5004,1.4993,1.4967,1.4955,1.4944,1.4926,1.4913,1.4896,1.4883,1.4857,1.4846,1.4823,1.4804,1.4768,1.4748,1.4725,1.472,1.4712,1.4716,1.472,1.4717,1.4718,1.4715,1.4711,1.4711,1.4711,1.4711,0,1.4996,1.4988,1.4971,1.4949,1.4934,1.4917,1.4898,1.4889,1.4869,1.4854,1.4831,1.4816,1.4785,1.4761,1.4735,1.472,1.4711,1.471,1.4706,1.4709,1.4715,1.4709,1.4733,1.471,1.4711,1.4711,1.4711,1.4711,1.4992,1.498,1.4959,1.4939,1.4923,1.4906,1.4892,1.4876,1.4857,1.4831,1.4821,1.4797,1.4774,1.4738,1.4723,1.4702,1.4701,1.4696,1.4695,1.4693,1.4692,1.4719,1.4698,1.4698,1.4698,1.4698,1.4698,0,1.4981,1.4967,1.4948,1.4923,1.4906,1.49,1.4879,1.4865,1.4844,1.4823,1.4804,1.4776,1.4751,1.4729,1.4703,1.4691,1.4685,1.4684,1.4684,1.468,1.4696,1.4701,1.4688,1.4688,1.4688,1.4688,1.4688,1.4688,1.4974,1.4953,1.4942,1.4911,1.4896,1.4873,1.4861,1.4844,1.4827,1.4796,1.4776,1.4762,1.474,1.4712,1.4688,1.4682,1.4672,1.4672,1.4664,1.4679,1.468,1.4681,1.4686,1.467,1.467,1.465,1.465,1.465]}]]